Year,Month,Day,Hour,Minute,Value (Times are PST for temperature in C)
2015,07,14,00,00,16.70
2015,07,14,00,01,16.70
2015,07,14,00,02,16.70
2015,07,14,00,03,16.70
2015,07,14,00,04,16.60
2015,07,14,00,05,16.60
2015,07,14,00,06,16.60
2015,07,14,00,07,16.60
2015,07,14,00,08,16.50
2015,07,14,00,09,16.50
2015,07,14,00,10,16.50
2015,07,14,00,11,16.40
2015,07,14,00,12,16.40
2015,07,14,00,13,16.30
2015,07,14,00,14,16.30
2015,07,14,00,15,16.20
2015,07,14,00,16,16.20
2015,07,14,00,17,16.10
2015,07,14,00,18,16.10
2015,07,14,00,19,16.10
2015,07,14,00,20,16.10
2015,07,14,00,21,16.10
2015,07,14,00,22,16.10
2015,07,14,00,23,16.00
2015,07,14,00,24,16.00
2015,07,14,00,25,16.00
2015,07,14,00,26,16.00
2015,07,14,00,27,16.00
2015,07,14,00,28,15.90
2015,07,14,00,29,15.90
2015,07,14,00,30,15.90
2015,07,14,00,31,15.90
2015,07,14,00,32,15.90
2015,07,14,00,33,15.90
2015,07,14,00,34,16.00
2015,07,14,00,35,16.00
2015,07,14,00,36,16.00
2015,07,14,00,37,16.00
2015,07,14,00,38,16.10
2015,07,14,00,39,16.10
2015,07,14,00,40,16.10
2015,07,14,00,41,16.10
2015,07,14,00,42,16.10
2015,07,14,00,43,16.10
2015,07,14,00,44,16.00
2015,07,14,00,45,16.00
2015,07,14,00,46,16.00
2015,07,14,00,47,16.00
2015,07,14,00,48,16.00
2015,07,14,00,49,16.00
2015,07,14,00,50,16.10
2015,07,14,00,51,16.10
2015,07,14,00,52,16.10
2015,07,14,00,53,16.10
2015,07,14,00,54,16.10
2015,07,14,00,55,16.00
2015,07,14,00,56,16.10
2015,07,14,00,57,16.10
2015,07,14,00,58,16.10
2015,07,14,00,59,16.10
2015,07,14,01,00,16.10
2015,07,14,01,01,16.10
2015,07,14,01,02,16.10
2015,07,14,01,03,16.10
2015,07,14,01,04,16.20
2015,07,14,01,05,16.20
2015,07,14,01,06,16.20
2015,07,14,01,07,16.30
2015,07,14,01,08,16.30
2015,07,14,01,09,16.40
2015,07,14,01,10,16.40
2015,07,14,01,11,16.50
2015,07,14,01,12,16.50
2015,07,14,01,13,16.50
2015,07,14,01,14,16.60
2015,07,14,01,15,16.60
2015,07,14,01,16,16.50
2015,07,14,01,17,16.50
2015,07,14,01,18,16.50
2015,07,14,01,19,16.40
2015,07,14,01,20,16.40
2015,07,14,01,21,16.40
2015,07,14,01,22,16.30
2015,07,14,01,23,16.30
2015,07,14,01,24,16.30
2015,07,14,01,25,16.20
2015,07,14,01,26,16.10
2015,07,14,01,27,16.10
2015,07,14,01,28,16.00
2015,07,14,01,29,16.00
2015,07,14,01,30,15.90
2015,07,14,01,31,15.90
2015,07,14,01,32,15.90
2015,07,14,01,33,15.80
2015,07,14,01,34,15.80
2015,07,14,01,35,15.80
2015,07,14,01,36,15.80
2015,07,14,01,37,15.80
2015,07,14,01,38,15.80
2015,07,14,01,39,15.70
2015,07,14,01,40,15.70
2015,07,14,01,41,15.70
2015,07,14,01,42,15.60
2015,07,14,01,43,15.60
2015,07,14,01,44,15.60
2015,07,14,01,45,15.50
2015,07,14,01,46,15.40
2015,07,14,01,47,15.40
2015,07,14,01,48,15.40
2015,07,14,01,49,15.30
2015,07,14,01,50,15.30
2015,07,14,01,51,15.30
2015,07,14,01,52,15.20
2015,07,14,01,53,15.20
2015,07,14,01,54,15.20
2015,07,14,01,55,15.20
2015,07,14,01,56,15.20
2015,07,14,01,57,15.20
2015,07,14,01,58,15.10
2015,07,14,01,59,15.10
2015,07,14,02,00,15.10
2015,07,14,02,01,15.10
2015,07,14,02,02,15.10
2015,07,14,02,03,15.10
2015,07,14,02,04,15.10
2015,07,14,02,05,15.10
2015,07,14,02,06,15.10
2015,07,14,02,07,15.00
2015,07,14,02,08,15.00
2015,07,14,02,09,15.00
2015,07,14,02,10,15.00
2015,07,14,02,11,15.00
2015,07,14,02,12,15.00
2015,07,14,02,13,15.00
2015,07,14,02,14,15.00
2015,07,14,02,15,14.90
2015,07,14,02,16,14.90
2015,07,14,02,17,14.90
2015,07,14,02,18,14.90
2015,07,14,02,19,14.80
2015,07,14,02,20,14.80
2015,07,14,02,21,14.80
2015,07,14,02,22,14.80
2015,07,14,02,23,14.80
2015,07,14,02,24,14.80
2015,07,14,02,25,14.80
2015,07,14,02,26,14.80
2015,07,14,02,27,14.80
2015,07,14,02,28,14.80
2015,07,14,02,29,14.80
2015,07,14,02,30,14.80
2015,07,14,02,31,14.70
2015,07,14,02,32,14.70
2015,07,14,02,33,14.70
2015,07,14,02,34,14.70
2015,07,14,02,35,14.70
2015,07,14,02,36,14.80
2015,07,14,02,37,14.70
2015,07,14,02,38,14.70
2015,07,14,02,39,14.70
2015,07,14,02,40,14.70
2015,07,14,02,41,14.70
2015,07,14,02,42,14.70
2015,07,14,02,43,14.70
2015,07,14,02,44,14.70
2015,07,14,02,45,14.70
2015,07,14,02,46,14.70
2015,07,14,02,47,14.70
2015,07,14,02,48,14.70
2015,07,14,02,49,14.70
2015,07,14,02,50,14.70
2015,07,14,02,51,14.70
2015,07,14,02,52,14.70
2015,07,14,02,53,14.70
2015,07,14,02,54,14.80
2015,07,14,02,55,14.80
2015,07,14,02,56,14.80
2015,07,14,02,57,14.80
2015,07,14,02,58,14.80
2015,07,14,02,59,14.80
2015,07,14,03,00,14.80
2015,07,14,03,01,14.80
2015,07,14,03,02,14.70
2015,07,14,03,03,14.70
2015,07,14,03,04,14.70
2015,07,14,03,05,14.70
2015,07,14,03,06,14.70
2015,07,14,03,07,14.70
2015,07,14,03,08,14.70
2015,07,14,03,09,14.70
2015,07,14,03,10,14.70
2015,07,14,03,11,14.60
2015,07,14,03,12,14.60
2015,07,14,03,13,14.60
2015,07,14,03,14,14.60
2015,07,14,03,15,14.60
2015,07,14,03,16,14.60
2015,07,14,03,17,14.50
2015,07,14,03,18,14.60
2015,07,14,03,19,14.60
2015,07,14,03,20,14.60
2015,07,14,03,21,14.60
2015,07,14,03,22,14.60
2015,07,14,03,23,14.50
2015,07,14,03,24,14.50
2015,07,14,03,25,14.50
2015,07,14,03,26,14.50
2015,07,14,03,27,14.50
2015,07,14,03,28,14.50
2015,07,14,03,29,14.50
2015,07,14,03,30,14.50
2015,07,14,03,31,14.50
2015,07,14,03,32,14.50
2015,07,14,03,33,14.50
2015,07,14,03,34,14.40
2015,07,14,03,35,14.40
2015,07,14,03,36,14.40
2015,07,14,03,37,14.40
2015,07,14,03,38,14.30
2015,07,14,03,39,14.30
2015,07,14,03,40,14.30
2015,07,14,03,41,14.30
2015,07,14,03,42,14.20
2015,07,14,03,43,14.20
2015,07,14,03,44,14.20
2015,07,14,03,45,14.20
2015,07,14,03,46,14.20
2015,07,14,03,47,14.20
2015,07,14,03,48,14.20
2015,07,14,03,49,14.20
2015,07,14,03,50,14.10
2015,07,14,03,51,14.10
2015,07,14,03,52,14.10
2015,07,14,03,53,14.10
2015,07,14,03,54,14.10
2015,07,14,03,55,14.10
2015,07,14,03,56,14.10
2015,07,14,03,57,14.10
2015,07,14,03,58,14.00
2015,07,14,03,59,14.00
2015,07,14,04,00,14.00
2015,07,14,04,01,13.90
2015,07,14,04,02,13.90
2015,07,14,04,03,13.80
2015,07,14,04,04,13.80
2015,07,14,04,05,13.80
2015,07,14,04,06,13.80
2015,07,14,04,07,13.80
2015,07,14,04,08,13.80
2015,07,14,04,09,13.80
2015,07,14,04,10,13.70
2015,07,14,04,11,13.70
2015,07,14,04,12,13.70
2015,07,14,04,13,13.70
2015,07,14,04,14,13.70
2015,07,14,04,15,13.70
2015,07,14,04,16,13.70
2015,07,14,04,17,13.70
2015,07,14,04,18,13.70
2015,07,14,04,19,13.70
2015,07,14,04,20,13.70
2015,07,14,04,21,13.60
2015,07,14,04,22,13.60
2015,07,14,04,23,13.60
2015,07,14,04,24,13.60
2015,07,14,04,25,13.60
2015,07,14,04,26,13.60
2015,07,14,04,27,13.60
2015,07,14,04,28,13.60
2015,07,14,04,29,13.60
2015,07,14,04,30,13.60
2015,07,14,04,31,13.60
2015,07,14,04,32,13.50
2015,07,14,04,33,13.50
2015,07,14,04,34,13.50
2015,07,14,04,35,13.50
2015,07,14,04,36,13.50
2015,07,14,04,37,13.50
2015,07,14,04,38,13.50
2015,07,14,04,39,13.60
2015,07,14,04,40,13.50
2015,07,14,04,41,13.50
2015,07,14,04,42,13.50
2015,07,14,04,43,13.50
2015,07,14,04,44,13.40
2015,07,14,04,45,13.40
2015,07,14,04,46,13.40
2015,07,14,04,47,13.30
2015,07,14,04,48,13.30
2015,07,14,04,49,13.30
2015,07,14,04,50,13.30
2015,07,14,04,51,13.30
2015,07,14,04,52,13.30
2015,07,14,04,53,13.30
2015,07,14,04,54,13.30
2015,07,14,04,55,13.30
2015,07,14,04,56,13.30
2015,07,14,04,57,13.20
2015,07,14,04,58,13.20
2015,07,14,04,59,13.20
2015,07,14,05,00,13.20
2015,07,14,05,01,13.20
2015,07,14,05,02,13.20
2015,07,14,05,03,13.20
2015,07,14,05,04,13.20
2015,07,14,05,05,13.20
2015,07,14,05,06,13.10
2015,07,14,05,07,13.10
2015,07,14,05,08,13.10
2015,07,14,05,09,13.10
2015,07,14,05,10,13.10
2015,07,14,05,11,13.10
2015,07,14,05,12,13.10
2015,07,14,05,13,13.00
2015,07,14,05,14,13.00
2015,07,14,05,15,12.90
2015,07,14,05,16,12.90
2015,07,14,05,17,12.90
2015,07,14,05,18,12.90
2015,07,14,05,19,12.80
2015,07,14,05,20,12.80
2015,07,14,05,21,12.80
2015,07,14,05,22,12.80
2015,07,14,05,23,12.70
2015,07,14,05,24,12.70
2015,07,14,05,25,12.60
2015,07,14,05,26,12.60
2015,07,14,05,27,12.60
2015,07,14,05,28,12.50
2015,07,14,05,29,12.50
2015,07,14,05,30,12.40
2015,07,14,05,31,12.40
2015,07,14,05,32,12.40
2015,07,14,05,33,12.30
2015,07,14,05,34,12.30
2015,07,14,05,35,12.30
2015,07,14,05,36,12.30
2015,07,14,05,37,12.20
2015,07,14,05,38,12.20
2015,07,14,05,39,12.20
2015,07,14,05,40,12.20
2015,07,14,05,41,12.20
2015,07,14,05,42,12.20
2015,07,14,05,43,12.20
2015,07,14,05,44,12.20
2015,07,14,05,45,12.20
2015,07,14,05,46,12.20
2015,07,14,05,47,12.20
2015,07,14,05,48,12.20
2015,07,14,05,49,12.30
2015,07,14,05,50,12.30
2015,07,14,05,51,12.30
2015,07,14,05,52,12.30
2015,07,14,05,53,12.40
2015,07,14,05,54,12.40
2015,07,14,05,55,12.50
2015,07,14,05,56,12.50
2015,07,14,05,57,12.60
2015,07,14,05,58,12.60
2015,07,14,05,59,12.60
2015,07,14,06,00,12.70
2015,07,14,06,01,12.70
2015,07,14,06,02,12.70
2015,07,14,06,03,12.70
2015,07,14,06,04,12.70
2015,07,14,06,05,12.70
2015,07,14,06,06,12.70
2015,07,14,06,07,12.70
2015,07,14,06,08,12.70
2015,07,14,06,09,12.70
2015,07,14,06,10,12.70
2015,07,14,06,11,12.70
2015,07,14,06,12,12.80
2015,07,14,06,13,12.80
2015,07,14,06,14,12.80
2015,07,14,06,15,12.80
2015,07,14,06,16,12.80
2015,07,14,06,17,12.80
2015,07,14,06,18,12.80
2015,07,14,06,19,12.80
2015,07,14,06,20,12.80
2015,07,14,06,21,12.80
2015,07,14,06,22,12.80
2015,07,14,06,23,12.80
2015,07,14,06,24,12.80
2015,07,14,06,25,12.80
2015,07,14,06,26,12.80
2015,07,14,06,27,12.80
2015,07,14,06,28,12.80
2015,07,14,06,29,12.80
2015,07,14,06,30,12.80
2015,07,14,06,31,12.90
2015,07,14,06,32,12.90
2015,07,14,06,33,13.00
2015,07,14,06,34,13.10
2015,07,14,06,35,13.10
2015,07,14,06,36,13.10
2015,07,14,06,37,13.20
2015,07,14,06,38,13.20
2015,07,14,06,39,13.30
2015,07,14,06,40,13.30
2015,07,14,06,41,13.40
2015,07,14,06,42,13.40
2015,07,14,06,43,13.50
2015,07,14,06,44,13.60
2015,07,14,06,45,13.60
2015,07,14,06,46,13.70
2015,07,14,06,47,13.70
2015,07,14,06,48,13.80
2015,07,14,06,49,13.80
2015,07,14,06,50,13.90
2015,07,14,06,51,13.90
2015,07,14,06,52,14.00
2015,07,14,06,53,14.10
2015,07,14,06,54,14.10
2015,07,14,06,55,14.20
2015,07,14,06,56,14.20
2015,07,14,06,57,14.20
2015,07,14,06,58,14.20
2015,07,14,06,59,14.30
2015,07,14,07,00,14.30
2015,07,14,07,01,14.30
2015,07,14,07,02,14.30
2015,07,14,07,03,14.30
2015,07,14,07,04,14.40
2015,07,14,07,05,14.40
2015,07,14,07,06,14.50
2015,07,14,07,07,14.60
2015,07,14,07,08,14.60
2015,07,14,07,09,14.70
2015,07,14,07,10,14.80
2015,07,14,07,11,14.80
2015,07,14,07,12,14.90
2015,07,14,07,13,14.90
2015,07,14,07,14,14.90
2015,07,14,07,15,14.90
2015,07,14,07,16,14.90
2015,07,14,07,17,14.90
2015,07,14,07,18,14.90
2015,07,14,07,19,14.90
2015,07,14,07,20,14.90
2015,07,14,07,21,14.90
2015,07,14,07,22,14.90
2015,07,14,07,23,14.90
2015,07,14,07,24,15.00
2015,07,14,07,25,15.00
2015,07,14,07,26,15.00
2015,07,14,07,27,15.00
2015,07,14,07,28,15.10
2015,07,14,07,29,15.10
2015,07,14,07,30,15.10
2015,07,14,07,31,15.10
2015,07,14,07,32,15.10
2015,07,14,07,33,15.10
2015,07,14,07,34,15.10
2015,07,14,07,35,15.20
2015,07,14,07,36,15.20
2015,07,14,07,37,15.20
2015,07,14,07,38,15.20
2015,07,14,07,39,15.20
2015,07,14,07,40,15.20
2015,07,14,07,41,15.30
2015,07,14,07,42,15.30
2015,07,14,07,43,15.40
2015,07,14,07,44,15.40
2015,07,14,07,45,15.50
2015,07,14,07,46,15.50
2015,07,14,07,47,15.60
2015,07,14,07,48,15.70
2015,07,14,07,49,15.80
2015,07,14,07,50,15.90
2015,07,14,07,51,16.10
2015,07,14,07,52,16.20
2015,07,14,07,53,16.30
2015,07,14,07,54,16.40
2015,07,14,07,55,16.50
2015,07,14,07,56,16.50
2015,07,14,07,57,16.60
2015,07,14,07,58,16.60
2015,07,14,07,59,16.60
2015,07,14,08,00,16.60
2015,07,14,08,01,16.60
2015,07,14,08,02,16.70
2015,07,14,08,03,16.70
2015,07,14,08,04,16.70
2015,07,14,08,05,16.70
2015,07,14,08,06,16.70
2015,07,14,08,07,16.80
2015,07,14,08,08,16.80
2015,07,14,08,09,16.80
2015,07,14,08,10,16.90
2015,07,14,08,11,16.90
2015,07,14,08,12,16.90
2015,07,14,08,13,16.90
2015,07,14,08,14,16.80
2015,07,14,08,15,16.80
2015,07,14,08,16,16.80
2015,07,14,08,17,16.70
2015,07,14,08,18,16.70
2015,07,14,08,19,16.70
2015,07,14,08,20,16.70
2015,07,14,08,21,16.80
2015,07,14,08,22,16.80
2015,07,14,08,23,16.90
2015,07,14,08,24,16.90
2015,07,14,08,25,17.00
2015,07,14,08,26,17.10
2015,07,14,08,27,17.20
2015,07,14,08,28,17.20
2015,07,14,08,29,17.20
2015,07,14,08,30,17.30
2015,07,14,08,31,17.40
2015,07,14,08,32,17.50
2015,07,14,08,33,17.60
2015,07,14,08,34,17.70
2015,07,14,08,35,17.80
2015,07,14,08,36,17.90
2015,07,14,08,37,18.00
2015,07,14,08,38,18.10
2015,07,14,08,39,18.20
2015,07,14,08,40,18.20
2015,07,14,08,41,18.20
2015,07,14,08,42,18.30
2015,07,14,08,43,18.30
2015,07,14,08,44,18.30
2015,07,14,08,45,18.30
2015,07,14,08,46,18.40
2015,07,14,08,47,18.40
2015,07,14,08,48,18.40
2015,07,14,08,49,18.40
2015,07,14,08,50,18.40
2015,07,14,08,51,18.40
2015,07,14,08,52,18.40
2015,07,14,08,53,18.30
2015,07,14,08,54,18.40
2015,07,14,08,55,18.40
2015,07,14,08,56,18.40
2015,07,14,08,57,18.50
2015,07,14,08,58,18.50
2015,07,14,08,59,18.60
2015,07,14,09,00,18.60
2015,07,14,09,01,18.70
2015,07,14,09,02,18.70
2015,07,14,09,03,18.80
2015,07,14,09,04,18.80
2015,07,14,09,05,18.90
2015,07,14,09,06,19.00
2015,07,14,09,07,19.00
2015,07,14,09,08,19.10
2015,07,14,09,09,19.20
2015,07,14,09,10,19.20
2015,07,14,09,11,19.30
2015,07,14,09,12,19.30
2015,07,14,09,13,19.40
2015,07,14,09,14,19.40
2015,07,14,09,15,19.40
2015,07,14,09,16,19.50
2015,07,14,09,17,19.50
2015,07,14,09,18,19.50
2015,07,14,09,19,19.50
2015,07,14,09,20,19.60
2015,07,14,09,21,19.60
2015,07,14,09,22,19.60
2015,07,14,09,23,19.60
2015,07,14,09,24,19.70
2015,07,14,09,25,19.80
2015,07,14,09,26,19.90
2015,07,14,09,27,20.00
2015,07,14,09,28,20.10
2015,07,14,09,29,20.10
2015,07,14,09,30,20.20
2015,07,14,09,31,20.30
2015,07,14,09,32,20.40
2015,07,14,09,33,20.40
2015,07,14,09,34,20.40
2015,07,14,09,35,20.40
2015,07,14,09,36,20.40
2015,07,14,09,37,20.40
2015,07,14,09,38,20.40
2015,07,14,09,39,20.40
2015,07,14,09,40,20.40
2015,07,14,09,41,20.50
2015,07,14,09,42,20.50
2015,07,14,09,43,20.50
2015,07,14,09,44,20.60
2015,07,14,09,45,20.50
2015,07,14,09,46,20.50
2015,07,14,09,47,20.50
2015,07,14,09,48,20.50
2015,07,14,09,49,20.60
2015,07,14,09,50,20.60
2015,07,14,09,51,20.70
2015,07,14,09,52,20.70
2015,07,14,09,53,20.70
2015,07,14,09,54,20.80
2015,07,14,09,55,20.80
2015,07,14,09,56,20.80
2015,07,14,09,57,20.80
2015,07,14,09,58,20.80
2015,07,14,09,59,20.90
2015,07,14,10,00,20.90
2015,07,14,10,01,21.00
2015,07,14,10,02,21.00
2015,07,14,10,03,21.00
2015,07,14,10,04,21.00
2015,07,14,10,05,20.90
2015,07,14,10,06,20.80
2015,07,14,10,07,20.80
2015,07,14,10,08,20.80
2015,07,14,10,09,20.80
2015,07,14,10,10,20.80
2015,07,14,10,11,20.90
2015,07,14,10,12,20.90
2015,07,14,10,13,21.00
2015,07,14,10,14,21.00
2015,07,14,10,15,21.00
2015,07,14,10,16,21.00
2015,07,14,10,17,21.00
2015,07,14,10,18,20.90
2015,07,14,10,19,20.90
2015,07,14,10,20,20.80
2015,07,14,10,21,20.80
2015,07,14,10,22,20.70
2015,07,14,10,23,20.70
2015,07,14,10,24,20.70
2015,07,14,10,25,20.80
2015,07,14,10,26,20.90
2015,07,14,10,27,20.90
2015,07,14,10,28,20.90
2015,07,14,10,29,20.90
2015,07,14,10,30,20.90
2015,07,14,10,31,21.00
2015,07,14,10,32,21.00
2015,07,14,10,33,21.10
2015,07,14,10,34,21.10
2015,07,14,10,35,21.10
2015,07,14,10,36,21.10
2015,07,14,10,37,21.10
2015,07,14,10,38,21.10
2015,07,14,10,39,21.20
2015,07,14,10,40,21.30
2015,07,14,10,41,21.40
2015,07,14,10,42,21.50
2015,07,14,10,43,21.70
2015,07,14,10,44,21.80
2015,07,14,10,45,21.90
2015,07,14,10,46,22.10
2015,07,14,10,47,22.10
2015,07,14,10,48,22.10
2015,07,14,10,49,22.10
2015,07,14,10,50,22.10
2015,07,14,10,51,22.20
2015,07,14,10,52,22.20
2015,07,14,10,53,22.30
2015,07,14,10,54,22.30
2015,07,14,10,55,22.30
2015,07,14,10,56,22.40
2015,07,14,10,57,22.40
2015,07,14,10,58,22.40
2015,07,14,10,59,22.30
2015,07,14,11,00,22.30
2015,07,14,11,01,22.30
2015,07,14,11,02,22.20
2015,07,14,11,03,22.20
2015,07,14,11,04,22.20
2015,07,14,11,05,22.10
2015,07,14,11,06,22.00
2015,07,14,11,07,22.00
2015,07,14,11,08,21.90
2015,07,14,11,09,21.90
2015,07,14,11,10,21.90
2015,07,14,11,11,22.00
2015,07,14,11,12,22.10
2015,07,14,11,13,22.10
2015,07,14,11,14,22.10
2015,07,14,11,15,22.10
2015,07,14,11,16,22.00
2015,07,14,11,17,22.00
2015,07,14,11,18,22.00
2015,07,14,11,19,22.00
2015,07,14,11,20,22.10
2015,07,14,11,21,22.10
2015,07,14,11,22,22.20
2015,07,14,11,23,22.20
2015,07,14,11,24,22.20
2015,07,14,11,25,22.20
2015,07,14,11,26,22.10
2015,07,14,11,27,22.20
2015,07,14,11,28,22.30
2015,07,14,11,29,22.30
2015,07,14,11,30,22.30
2015,07,14,11,31,22.30
2015,07,14,11,32,22.20
2015,07,14,11,33,22.20
2015,07,14,11,34,22.10
2015,07,14,11,35,22.10
2015,07,14,11,36,22.20
2015,07,14,11,37,22.20
2015,07,14,11,38,22.20
2015,07,14,11,39,22.20
2015,07,14,11,40,22.20
2015,07,14,11,41,22.20
2015,07,14,11,42,22.20
2015,07,14,11,43,22.10
2015,07,14,11,44,22.10
2015,07,14,11,45,22.10
2015,07,14,11,46,22.10
2015,07,14,11,47,22.10
2015,07,14,11,48,22.20
2015,07,14,11,49,22.30
2015,07,14,11,50,22.30
2015,07,14,11,51,22.30
2015,07,14,11,52,22.30
2015,07,14,11,53,22.30
2015,07,14,11,54,22.40
2015,07,14,11,55,22.40
2015,07,14,11,56,22.50
2015,07,14,11,57,22.60
2015,07,14,11,58,22.70
2015,07,14,11,59,22.70
2015,07,14,12,00,22.70
2015,07,14,12,01,22.60
2015,07,14,12,02,22.50
2015,07,14,12,03,22.50
2015,07,14,12,04,22.40
2015,07,14,12,05,22.30
2015,07,14,12,06,22.40
2015,07,14,12,07,22.40
2015,07,14,12,08,22.40
2015,07,14,12,09,22.40
2015,07,14,12,10,22.50
2015,07,14,12,11,22.60
2015,07,14,12,12,22.70
2015,07,14,12,13,22.70
2015,07,14,12,14,22.60
2015,07,14,12,15,22.60
2015,07,14,12,16,22.60
2015,07,14,12,17,22.60
2015,07,14,12,18,22.70
2015,07,14,12,19,22.70
2015,07,14,12,20,22.70
2015,07,14,12,21,22.70
2015,07,14,12,22,22.80
2015,07,14,12,23,22.70
2015,07,14,12,24,22.70
2015,07,14,12,25,22.60
2015,07,14,12,26,22.60
2015,07,14,12,27,22.60
2015,07,14,12,28,22.50
2015,07,14,12,29,22.50
2015,07,14,12,30,22.50
2015,07,14,12,31,22.60
2015,07,14,12,32,22.60
2015,07,14,12,33,22.70
2015,07,14,12,34,22.80
2015,07,14,12,35,22.80
2015,07,14,12,36,22.90
2015,07,14,12,37,22.80
2015,07,14,12,38,22.80
2015,07,14,12,39,22.80
2015,07,14,12,40,22.70
2015,07,14,12,41,22.80
2015,07,14,12,42,22.80
2015,07,14,12,43,22.90
2015,07,14,12,44,23.00
2015,07,14,12,45,23.10
2015,07,14,12,46,23.20
2015,07,14,12,47,23.30
2015,07,14,12,48,23.30
2015,07,14,12,49,23.40
2015,07,14,12,50,23.50
2015,07,14,12,51,23.50
2015,07,14,12,52,23.60
2015,07,14,12,53,23.70
2015,07,14,12,54,23.70
2015,07,14,12,55,23.70
2015,07,14,12,56,23.60
2015,07,14,12,57,23.60
2015,07,14,12,58,23.60
2015,07,14,12,59,23.60
2015,07,14,13,00,23.60
2015,07,14,13,01,23.60
2015,07,14,13,02,23.60
2015,07,14,13,03,23.60
2015,07,14,13,04,23.70
2015,07,14,13,05,23.80
2015,07,14,13,06,23.80
2015,07,14,13,07,23.80
2015,07,14,13,08,23.70
2015,07,14,13,09,23.70
2015,07,14,13,10,23.70
2015,07,14,13,11,23.80
2015,07,14,13,12,23.90
2015,07,14,13,13,23.90
2015,07,14,13,14,23.90
2015,07,14,13,15,23.90
2015,07,14,13,16,23.90
2015,07,14,13,17,24.00
2015,07,14,13,18,24.10
2015,07,14,13,19,24.10
2015,07,14,13,20,24.10
2015,07,14,13,21,24.10
2015,07,14,13,22,24.00
2015,07,14,13,23,23.90
2015,07,14,13,24,23.90
2015,07,14,13,25,23.80
2015,07,14,13,26,23.60
2015,07,14,13,27,23.50
2015,07,14,13,28,23.40
2015,07,14,13,29,23.50
2015,07,14,13,30,23.50
2015,07,14,13,31,23.60
2015,07,14,13,32,23.60
2015,07,14,13,33,23.60
2015,07,14,13,34,23.70
2015,07,14,13,35,23.80
2015,07,14,13,36,23.80
2015,07,14,13,37,23.90
2015,07,14,13,38,23.90
2015,07,14,13,39,23.90
2015,07,14,13,40,23.90
2015,07,14,13,41,23.90
2015,07,14,13,42,24.00
2015,07,14,13,43,24.00
2015,07,14,13,44,24.00
2015,07,14,13,45,24.10
2015,07,14,13,46,24.20
2015,07,14,13,47,24.20
2015,07,14,13,48,24.20
2015,07,14,13,49,24.10
2015,07,14,13,50,24.10
2015,07,14,13,51,24.10
2015,07,14,13,52,24.10
2015,07,14,13,53,24.20
2015,07,14,13,54,24.20
2015,07,14,13,55,24.20
2015,07,14,13,56,24.40
2015,07,14,13,57,24.50
2015,07,14,13,58,24.50
2015,07,14,13,59,24.50
2015,07,14,14,00,24.50
2015,07,14,14,01,24.50
2015,07,14,14,02,24.50
2015,07,14,14,03,24.60
2015,07,14,14,04,24.50
2015,07,14,14,05,24.50
2015,07,14,14,06,24.40
2015,07,14,14,07,24.30
2015,07,14,14,08,24.30
2015,07,14,14,09,24.30
2015,07,14,14,10,24.30
2015,07,14,14,11,24.30
2015,07,14,14,12,24.20
2015,07,14,14,13,24.20
2015,07,14,14,14,24.20
2015,07,14,14,15,24.20
2015,07,14,14,16,24.20
2015,07,14,14,17,24.20
2015,07,14,14,18,24.20
2015,07,14,14,19,24.20
2015,07,14,14,20,24.20
2015,07,14,14,21,24.20
2015,07,14,14,22,24.30
2015,07,14,14,23,24.50
2015,07,14,14,24,24.60
2015,07,14,14,25,24.70
2015,07,14,14,26,24.80
2015,07,14,14,27,24.70
2015,07,14,14,28,24.60
2015,07,14,14,29,24.50
2015,07,14,14,30,24.40
2015,07,14,14,31,24.30
2015,07,14,14,32,24.40
2015,07,14,14,33,24.50
2015,07,14,14,34,24.60
2015,07,14,14,35,24.60
2015,07,14,14,36,24.70
2015,07,14,14,37,24.70
2015,07,14,14,38,24.80
2015,07,14,14,39,24.80
2015,07,14,14,40,24.80
2015,07,14,14,41,24.80
2015,07,14,14,42,24.70
2015,07,14,14,43,24.70
2015,07,14,14,44,24.70
2015,07,14,14,45,24.70
2015,07,14,14,46,24.70
2015,07,14,14,47,24.70
2015,07,14,14,48,24.80
2015,07,14,14,49,24.80
2015,07,14,14,50,24.80
2015,07,14,14,51,24.70
2015,07,14,14,52,24.80
2015,07,14,14,53,24.80
2015,07,14,14,54,24.80
2015,07,14,14,55,25.00
2015,07,14,14,56,25.10
2015,07,14,14,57,25.10
2015,07,14,14,58,25.00
2015,07,14,14,59,25.00
2015,07,14,15,00,25.00
2015,07,14,15,01,24.90
2015,07,14,15,02,24.80
2015,07,14,15,03,24.80
2015,07,14,15,04,24.90
2015,07,14,15,05,25.00
2015,07,14,15,06,25.10
2015,07,14,15,07,25.20
2015,07,14,15,08,25.20
2015,07,14,15,09,25.30
2015,07,14,15,10,25.30
2015,07,14,15,11,25.30
2015,07,14,15,12,25.40
2015,07,14,15,13,25.40
2015,07,14,15,14,25.40
2015,07,14,15,15,25.50
2015,07,14,15,16,25.50
2015,07,14,15,17,25.50
2015,07,14,15,18,25.50
2015,07,14,15,19,25.50
2015,07,14,15,20,25.60
2015,07,14,15,21,25.60
2015,07,14,15,22,25.60
2015,07,14,15,23,25.60
2015,07,14,15,24,25.60
2015,07,14,15,25,25.60
2015,07,14,15,26,25.50
2015,07,14,15,27,25.50
2015,07,14,15,28,25.50
2015,07,14,15,29,25.60
2015,07,14,15,30,25.70
2015,07,14,15,31,25.70
2015,07,14,15,32,25.70
2015,07,14,15,33,25.60
2015,07,14,15,34,25.60
2015,07,14,15,35,25.60
2015,07,14,15,36,25.60
2015,07,14,15,37,25.60
2015,07,14,15,38,25.60
2015,07,14,15,39,25.60
2015,07,14,15,40,25.70
2015,07,14,15,41,25.70
2015,07,14,15,42,25.70
2015,07,14,15,43,25.80
2015,07,14,15,44,25.90
2015,07,14,15,45,25.90
2015,07,14,15,46,25.80
2015,07,14,15,47,25.70
2015,07,14,15,48,25.70
2015,07,14,15,49,25.70
2015,07,14,15,50,25.70
2015,07,14,15,51,25.60
2015,07,14,15,52,25.60
2015,07,14,15,53,25.60
2015,07,14,15,54,25.60
2015,07,14,15,55,25.60
2015,07,14,15,56,25.70
2015,07,14,15,57,25.80
2015,07,14,15,58,25.80
2015,07,14,15,59,25.90
2015,07,14,16,00,25.90
2015,07,14,16,01,25.80
2015,07,14,16,02,25.80
2015,07,14,16,03,25.70
2015,07,14,16,04,25.70
2015,07,14,16,05,25.60
2015,07,14,16,06,25.60
2015,07,14,16,07,25.60
2015,07,14,16,08,25.60
2015,07,14,16,09,25.60
2015,07,14,16,10,25.50
2015,07,14,16,11,25.40
2015,07,14,16,12,25.50
2015,07,14,16,13,25.50
2015,07,14,16,14,25.40
2015,07,14,16,15,25.40
2015,07,14,16,16,25.30
2015,07,14,16,17,25.30
2015,07,14,16,18,25.30
2015,07,14,16,19,25.30
2015,07,14,16,20,25.20
2015,07,14,16,21,25.30
2015,07,14,16,22,25.30
2015,07,14,16,23,25.30
2015,07,14,16,24,25.30
2015,07,14,16,25,25.30
2015,07,14,16,26,25.30
2015,07,14,16,27,25.20
2015,07,14,16,28,25.20
2015,07,14,16,29,25.20
2015,07,14,16,30,25.20
2015,07,14,16,31,25.20
2015,07,14,16,32,25.20
2015,07,14,16,33,25.20
2015,07,14,16,34,25.30
2015,07,14,16,35,25.20
2015,07,14,16,36,25.20
2015,07,14,16,37,25.20
2015,07,14,16,38,25.20
2015,07,14,16,39,25.20
2015,07,14,16,40,25.20
2015,07,14,16,41,25.20
2015,07,14,16,42,25.20
2015,07,14,16,43,25.20
2015,07,14,16,44,25.30
2015,07,14,16,45,25.30
2015,07,14,16,46,25.30
2015,07,14,16,47,25.30
2015,07,14,16,48,25.30
2015,07,14,16,49,25.30
2015,07,14,16,50,25.30
2015,07,14,16,51,25.30
2015,07,14,16,52,25.30
2015,07,14,16,53,25.40
2015,07,14,16,54,25.50
2015,07,14,16,55,25.50
2015,07,14,16,56,25.60
2015,07,14,16,57,25.60
2015,07,14,16,58,25.60
2015,07,14,16,59,25.60
2015,07,14,17,00,25.60
2015,07,14,17,01,25.60
2015,07,14,17,02,25.60
2015,07,14,17,03,25.60
2015,07,14,17,04,25.60
2015,07,14,17,05,25.60
2015,07,14,17,06,25.60
2015,07,14,17,07,25.60
2015,07,14,17,08,25.60
2015,07,14,17,09,25.60
2015,07,14,17,10,25.70
2015,07,14,17,11,25.80
2015,07,14,17,12,25.90
2015,07,14,17,13,25.90
2015,07,14,17,14,26.00
2015,07,14,17,15,26.00
2015,07,14,17,16,25.90
2015,07,14,17,17,25.80
2015,07,14,17,18,25.80
2015,07,14,17,19,25.70